Time,TemperatureF,DewpointF,PressureIn,WindDirection,WindDirectionDegrees,WindSpeedMPH,WindSpeedGustMPH,Humidity,HourlyPrecipIn,Conditions,Clouds,dailyrainin,SolarRadiationWatts/m^2,SoftwareType,DateUTC
2013-03-03 00:00:00,38.6,28.6,30.26,WNW,303,0.0,4.0,67,0.00,,,0.00,0,Wunderground v.1.15,2013-03-03 06:00:00,
2013-03-03 00:05:00,38.5,28.9,30.26,WNW,303,0.0,4.0,68,0.00,,,0.00,0,Wunderground v.1.15,2013-03-03 06:05:00,
2013-03-03 00:10:00,38.3,29.0,30.25,WNW,303,0.0,4.0,69,0.00,,,0.00,0,Wunderground v.1.15,2013-03-03 06:10:00,
2013-03-03 00:20:00,38.1,29.2,30.25,WNW,303,0.0,4.0,70,0.00,,,0.00,0,Wunderground v.1.15,2013-03-03 06:20:00,
2013-03-03 00:25:00,37.9,29.0,30.26,WNW,303,0.0,4.0,70,0.00,,,0.00,0,Wunderground v.1.15,2013-03-03 06:25:00,
2013-03-03 00:35:00,37.7,29.1,30.26,WNW,303,0.0,4.0,71,0.00,,,0.00,0,Wunderground v.1.15,2013-03-03 06:35:00,
2013-03-03 00:40:00,37.6,29.0,30.26,WNW,303,0.0,4.0,71,0.00,,,0.00,0,Wunderground v.1.15,2013-03-03 06:40:00,
2013-03-03 00:45:00,37.5,28.9,30.25,WNW,303,0.0,4.0,71,0.00,,,0.00,0,Wunderground v.1.15,2013-03-03 06:45:00,
2013-03-03 00:50:00,37.3,28.8,30.25,WNW,303,0.0,4.0,71,0.00,,,0.00,0,Wunderground v.1.15,2013-03-03 06:50:00,
2013-03-03 00:55:00,37.1,28.6,30.25,WNW,303,0.0,4.0,71,0.00,,,0.00,0,Wunderground v.1.15,2013-03-03 06:55:00,
2013-03-03 01:05:00,36.9,28.7,30.25,WNW,303,0.0,4.0,72,0.00,,,0.00,0,Wunderground v.1.15,2013-03-03 07:05:00,
2013-03-03 01:10:00,36.8,28.6,30.25,WNW,303,0.0,4.0,72,0.00,,,0.00,0,Wunderground v.1.15,2013-03-03 07:10:00,
2013-03-03 01:20:00,36.6,28.4,30.25,WNW,303,0.0,4.0,72,0.00,,,0.00,0,Wunderground v.1.15,2013-03-03 07:20:00,
2013-03-03 01:25:00,36.6,28.8,30.25,WNW,303,0.0,4.0,73,0.00,,,0.00,0,Wunderground v.1.15,2013-03-03 07:25:00,
2013-03-03 01:30:00,36.7,28.9,30.25,WNW,303,0.0,4.0,73,0.00,,,0.00,0,Wunderground v.1.15,2013-03-03 07:30:00,
2013-03-03 01:40:00,36.7,28.9,30.25,WNW,303,0.0,4.0,73,0.00,,,0.00,0,Wunderground v.1.15,2013-03-03 07:40:00,
2013-03-03 01:45:00,36.7,28.9,30.25,WNW,303,0.0,4.0,73,0.00,,,0.00,0,Wunderground v.1.15,2013-03-03 07:45:00,
2013-03-03 01:50:00,36.7,28.9,30.25,WNW,303,0.0,4.0,73,0.00,,,0.00,0,Wunderground v.1.15,2013-03-03 07:50:00,
2013-03-03 01:55:00,36.5,28.7,30.25,WNW,303,0.0,4.0,73,0.00,,,0.00,0,Wunderground v.1.15,2013-03-03 07:55:00,
2013-03-03 02:00:00,36.4,28.6,30.25,WNW,303,0.0,4.0,73,0.00,,,0.00,0,Wunderground v.1.15,2013-03-03 08:00:00,
2013-03-03 02:10:00,36.3,29.1,30.25,WNW,303,0.0,4.0,75,0.00,,,0.00,0,Wunderground v.1.15,2013-03-03 08:10:00,
2013-03-03 02:15:00,36.3,29.5,30.25,WNW,303,0.0,4.0,76,0.00,,,0.00,0,Wunderground v.1.15,2013-03-03 08:15:00,
2013-03-03 02:20:00,36.3,29.5,30.24,WNW,303,0.0,4.0,76,0.00,,,0.00,0,Wunderground v.1.15,2013-03-03 08:20:00,
2013-03-03 02:25:00,36.3,29.5,30.24,WNW,303,0.0,4.0,76,0.00,,,0.00,0,Wunderground v.1.15,2013-03-03 08:25:00,
2013-03-03 02:30:00,36.4,29.9,30.24,WNW,303,0.0,4.0,77,0.00,,,0.00,0,Wunderground v.1.15,2013-03-03 08:30:00,
2013-03-03 02:35:00,36.5,29.7,30.24,WNW,303,0.0,4.0,76,0.00,,,0.00,0,Wunderground v.1.15,2013-03-03 08:35:00,
2013-03-03 02:40:00,36.5,29.7,30.24,WNW,303,0.0,4.0,76,0.00,,,0.00,0,Wunderground v.1.15,2013-03-03 08:40:00,
2013-03-03 02:50:00,36.4,30.2,30.23,WNW,303,0.0,4.0,78,0.00,,,0.00,0,Wunderground v.1.15,2013-03-03 08:50:00,
2013-03-03 02:55:00,36.2,30.0,30.23,WNW,303,0.0,4.0,78,0.00,,,0.00,0,Wunderground v.1.15,2013-03-03 08:55:00,
2013-03-03 03:00:00,36.1,29.9,30.22,WNW,303,0.0,4.0,78,0.00,,,0.00,0,Wunderground v.1.15,2013-03-03 09:00:00,
2013-03-03 03:05:00,36.0,29.8,30.22,WNW,303,0.0,4.0,78,0.00,,,0.00,0,Wunderground v.1.15,2013-03-03 09:05:00,
2013-03-03 03:15:00,35.8,29.6,30.21,WNW,303,0.0,4.0,78,0.00,,,0.00,0,Wunderground v.1.15,2013-03-03 09:15:00,
2013-03-03 03:25:00,35.8,29.9,30.22,WNW,303,0.0,4.0,79,0.00,,,0.00,0,Wunderground v.1.15,2013-03-03 09:25:00,
2013-03-03 03:30:00,35.7,29.5,30.22,WNW,303,0.0,4.0,78,0.00,,,0.00,0,Wunderground v.1.15,2013-03-03 09:30:00,
2013-03-03 03:35:00,35.6,29.4,30.21,WNW,303,0.0,4.0,78,0.00,,,0.00,0,Wunderground v.1.15,2013-03-03 09:35:00,
2013-03-03 03:40:00,35.7,29.8,30.22,WNW,303,0.0,4.0,79,0.00,,,0.00,0,Wunderground v.1.15,2013-03-03 09:40:00,
2013-03-03 03:45:00,35.9,30.0,30.21,WNW,303,0.0,4.0,79,0.00,,,0.00,0,Wunderground v.1.15,2013-03-03 09:45:00,
2013-03-03 03:55:00,36.2,30.3,30.22,WNW,303,0.0,4.0,79,0.00,,,0.00,0,Wunderground v.1.15,2013-03-03 09:55:00,
2013-03-03 04:00:00,36.1,30.2,30.22,WNW,303,0.0,4.0,79,0.00,,,0.00,0,Wunderground v.1.15,2013-03-03 10:00:00,
2013-03-03 04:05:00,36.0,30.1,30.22,WNW,303,0.0,4.0,79,0.00,,,0.00,0,Wunderground v.1.15,2013-03-03 10:05:00,
2013-03-03 04:15:00,35.9,30.0,30.23,WNW,303,0.0,4.0,79,0.00,,,0.00,0,Wunderground v.1.15,2013-03-03 10:15:00,
2013-03-03 04:20:00,35.7,29.8,30.23,WNW,303,0.0,4.0,79,0.00,,,0.00,0,Wunderground v.1.15,2013-03-03 10:20:00,
2013-03-03 04:30:00,35.6,29.4,30.23,WNW,303,0.0,4.0,78,0.00,,,0.00,0,Wunderground v.1.15,2013-03-03 10:30:00,
2013-03-03 04:35:00,35.5,29.3,30.23,WNW,303,0.0,4.0,78,0.00,,,0.00,0,Wunderground v.1.15,2013-03-03 10:35:00,
2013-03-03 04:40:00,35.3,29.1,30.23,WNW,303,0.0,4.0,78,0.00,,,0.00,0,Wunderground v.1.15,2013-03-03 10:40:00,
2013-03-03 04:45:00,35.2,29.0,30.23,WNW,303,0.0,4.0,78,0.00,,,0.00,0,Wunderground v.1.15,2013-03-03 10:45:00,
2013-03-03 04:50:00,35.1,28.9,30.23,WNW,303,0.0,4.0,78,0.00,,,0.00,0,Wunderground v.1.15,2013-03-03 10:50:00,
2013-03-03 05:00:00,34.9,28.7,30.24,WNW,303,0.0,4.0,78,0.00,,,0.00,0,Wunderground v.1.15,2013-03-03 11:00:00,
2013-03-03 05:05:00,34.8,29.0,30.24,WNW,303,0.0,4.0,79,0.00,,,0.00,0,Wunderground v.1.15,2013-03-03 11:05:00,
2013-03-03 05:10:00,34.7,28.9,30.24,WNW,303,0.0,4.0,79,0.00,,,0.00,0,Wunderground v.1.15,2013-03-03 11:10:00,
2013-03-03 05:15:00,34.6,28.8,30.24,WNW,303,0.0,4.0,79,0.00,,,0.00,0,Wunderground v.1.15,2013-03-03 11:15:00,
2013-03-03 05:20:00,34.4,28.6,30.24,WNW,303,0.0,4.0,79,0.00,,,0.00,0,Wunderground v.1.15,2013-03-03 11:20:00,
2013-03-03 05:25:00,34.4,28.9,30.24,WNW,303,0.0,4.0,80,0.00,,,0.00,0,Wunderground v.1.15,2013-03-03 11:25:00,
2013-03-03 05:30:00,34.4,28.9,30.24,WNW,303,0.0,4.0,80,0.00,,,0.00,0,Wunderground v.1.15,2013-03-03 11:30:00,
2013-03-03 05:40:00,34.0,28.5,30.24,WNW,303,0.0,4.0,80,0.00,,,0.00,0,Wunderground v.1.15,2013-03-03 11:40:00,
2013-03-03 05:45:00,33.9,28.7,30.24,WNW,303,0.0,4.0,81,0.00,,,0.00,0,Wunderground v.1.15,2013-03-03 11:45:00,
2013-03-03 05:55:00,33.8,28.6,30.24,WNW,303,0.0,4.0,81,0.00,,,0.00,0,Wunderground v.1.15,2013-03-03 11:55:00,
2013-03-03 06:00:00,33.8,28.9,30.23,WNW,303,0.0,4.0,82,0.00,,,0.00,0,Wunderground v.1.15,2013-03-03 12:00:00,
2013-03-03 06:05:00,33.9,29.0,30.24,WNW,303,0.0,4.0,82,0.00,,,0.00,0,Wunderground v.1.15,2013-03-03 12:05:00,
2013-03-03 06:10:00,33.8,28.9,30.24,WNW,303,0.0,4.0,82,0.00,,,0.00,0,Wunderground v.1.15,2013-03-03 12:10:00,
2013-03-03 06:15:00,33.8,28.9,30.24,WNW,303,0.0,4.0,82,0.00,,,0.00,0,Wunderground v.1.15,2013-03-03 12:15:00,
2013-03-03 06:20:00,33.7,28.8,30.24,WNW,303,0.0,4.0,82,0.00,,,0.00,0,Wunderground v.1.15,2013-03-03 12:20:00,
2013-03-03 06:25:00,33.6,28.7,30.24,WNW,303,0.0,4.0,82,0.00,,,0.00,0,Wunderground v.1.15,2013-03-03 12:25:00,
2013-03-03 06:30:00,33.5,28.6,30.24,WNW,303,0.0,4.0,82,0.00,,,0.00,0,Wunderground v.1.15,2013-03-03 12:30:00,
2013-03-03 06:35:00,33.5,28.6,30.24,WNW,303,0.0,4.0,82,0.00,,,0.00,0,Wunderground v.1.15,2013-03-03 12:35:00,
2013-03-03 06:45:00,33.4,28.5,30.24,WNW,303,0.0,4.0,82,0.00,,,0.00,0,Wunderground v.1.15,2013-03-03 12:45:00,
2013-03-03 06:55:00,33.4,28.8,30.24,WNW,303,0.0,4.0,83,0.00,,,0.00,7,Wunderground v.1.15,2013-03-03 12:55:00,
2013-03-03 07:00:00,33.4,28.8,30.24,WNW,303,0.0,4.0,83,0.00,,,0.00,11,Wunderground v.1.15,2013-03-03 13:00:00,
2013-03-03 07:05:00,33.4,28.8,30.24,WNW,303,0.0,4.0,83,0.00,,,0.00,12,Wunderground v.1.15,2013-03-03 13:05:00,
2013-03-03 07:10:00,33.5,28.9,30.24,WNW,303,0.0,4.0,83,0.00,,,0.00,18,Wunderground v.1.15,2013-03-03 13:10:00,
2013-03-03 07:20:00,33.6,29.3,30.24,WNW,303,0.0,4.0,84,0.00,,,0.00,23,Wunderground v.1.15,2013-03-03 13:20:00,
2013-03-03 07:25:00,33.8,29.5,30.25,WNW,303,0.0,4.0,84,0.00,,,0.00,26,Wunderground v.1.15,2013-03-03 13:25:00,
2013-03-03 07:30:00,34.1,29.8,30.25,WNW,303,0.0,4.0,84,0.00,,,0.00,26,Wunderground v.1.15,2013-03-03 13:30:00,
2013-03-03 07:35:00,34.4,30.1,30.25,WNW,303,0.0,4.0,84,0.00,,,0.00,30,Wunderground v.1.15,2013-03-03 13:35:00,
2013-03-03 07:45:00,35.0,30.9,30.25,WNW,303,0.0,4.0,85,0.00,,,0.00,32,Wunderground v.1.15,2013-03-03 13:45:00,
2013-03-03 07:55:00,36.1,31.7,30.25,WNW,303,0.0,4.0,84,0.00,,,0.00,35,Wunderground v.1.15,2013-03-03 13:55:00,
2013-03-03 08:00:00,36.9,31.9,30.25,WNW,303,0.0,4.0,82,0.00,,,0.00,37,Wunderground v.1.15,2013-03-03 14:00:00,
2013-03-03 08:05:00,37.9,32.0,30.26,WNW,303,0.0,4.0,79,0.00,,,0.00,37,Wunderground v.1.15,2013-03-03 14:05:00,
2013-03-03 08:10:00,39.0,32.1,30.26,WNW,303,0.0,4.0,76,0.00,,,0.00,39,Wunderground v.1.15,2013-03-03 14:10:00,
2013-03-03 08:15:00,40.2,32.6,30.26,WNW,303,0.0,4.0,74,0.00,,,0.00,42,Wunderground v.1.15,2013-03-03 14:15:00,
2013-03-03 08:20:00,41.5,31.4,30.26,WNW,303,0.0,4.0,67,0.00,,,0.00,104,Wunderground v.1.15,2013-03-03 14:20:00,
2013-03-03 08:25:00,42.5,31.9,30.26,WNW,303,0.0,4.0,66,0.00,,,0.00,239,Wunderground v.1.15,2013-03-03 14:25:00,
2013-03-03 08:30:00,43.6,32.2,30.26,WNW,303,0.0,4.0,64,0.00,,,0.00,243,Wunderground v.1.15,2013-03-03 14:30:00,
2013-03-03 08:35:00,45.0,32.8,30.26,SE,125,0.0,4.0,62,0.00,,,0.00,155,Wunderground v.1.15,2013-03-03 14:35:00,
2013-03-03 08:40:00,46.0,33.7,30.26,SE,126,0.0,4.0,62,0.00,,,0.00,178,Wunderground v.1.15,2013-03-03 14:40:00,
2013-03-03 08:50:00,47.6,34.0,30.26,SE,126,0.0,4.0,59,0.00,,,0.00,364,Wunderground v.1.15,2013-03-03 14:50:00,
2013-03-03 08:55:00,48.5,34.4,30.26,SSW,211,0.0,4.0,58,0.00,,,0.00,380,Wunderground v.1.15,2013-03-03 14:55:00,
2013-03-03 09:00:00,49.6,34.1,30.27,SSW,205,0.0,4.0,55,0.00,,,0.00,403,Wunderground v.1.15,2013-03-03 15:00:00,
2013-03-03 09:05:00,50.6,34.1,30.27,SSW,204,0.0,4.0,53,0.00,,,0.00,425,Wunderground v.1.15,2013-03-03 15:05:00,
2013-03-03 09:10:00,51.2,33.7,30.27,ESE,121,1.0,1.0,51,0.00,,,0.00,439,Wunderground v.1.15,2013-03-03 15:10:00,
2013-03-03 09:15:00,51.9,33.3,30.26,NE,55,0.0,4.0,49,0.00,,,0.00,336,Wunderground v.1.15,2013-03-03 15:15:00,
2013-03-03 09:20:00,53.0,34.8,30.26,East,87,0.0,4.0,50,0.00,,,0.00,105,Wunderground v.1.15,2013-03-03 15:20:00,
2013-03-03 09:25:00,53.4,33.1,30.26,West,259,1.0,4.0,46,0.00,,,0.00,63,Wunderground v.1.15,2013-03-03 15:25:00,
2013-03-03 09:35:00,54.1,33.8,30.27,ENE,63,1.0,4.0,46,0.00,,,0.00,58,Wunderground v.1.15,2013-03-03 15:35:00,
2013-03-03 09:40:00,54.6,34.2,30.26,ENE,60,0.0,4.0,46,0.00,,,0.00,62,Wunderground v.1.15,2013-03-03 15:40:00,
2013-03-03 09:45:00,54.8,33.8,30.25,SE,146,0.0,4.0,45,0.00,,,0.00,113,Wunderground v.1.15,2013-03-03 15:45:00,
2013-03-03 09:50:00,54.9,33.9,30.25,South,178,0.0,4.0,45,0.00,,,0.00,90,Wunderground v.1.15,2013-03-03 15:50:00,
2013-03-03 09:55:00,55.1,33.6,30.25,ENE,71,0.0,4.0,44,0.00,,,0.00,54,Wunderground v.1.15,2013-03-03 15:55:00,
2013-03-03 10:00:00,55.4,32.1,30.25,ESE,108,0.0,4.0,41,0.00,,,0.00,58,Wunderground v.1.15,2013-03-03 16:00:00,
2013-03-03 10:10:00,56.1,33.3,30.25,NE,44,0.0,4.0,42,0.00,,,0.00,257,Wunderground v.1.15,2013-03-03 16:10:00,
2013-03-03 10:15:00,56.4,31.7,30.25,East,99,1.0,4.0,39,0.00,,,0.00,70,Wunderground v.1.15,2013-03-03 16:15:00,
2013-03-03 10:20:00,56.9,32.8,30.24,ESE,120,1.0,4.0,40,0.00,,,0.00,63,Wunderground v.1.15,2013-03-03 16:20:00,
2013-03-03 10:30:00,57.4,33.3,30.24,ENE,74,1.0,1.0,40,0.00,,,0.00,69,Wunderground v.1.15,2013-03-03 16:30:00,
2013-03-03 10:35:00,57.8,33.6,30.24,SSE,148,1.0,4.0,40,0.00,,,0.00,120,Wunderground v.1.15,2013-03-03 16:35:00,
2013-03-03 10:40:00,58.2,34.0,30.23,SE,131,1.0,4.0,40,0.00,,,0.00,97,Wunderground v.1.15,2013-03-03 16:40:00,
2013-03-03 10:45:00,58.4,34.2,30.23,SSE,168,0.0,4.0,40,0.00,,,0.00,84,Wunderground v.1.15,2013-03-03 16:45:00,
2013-03-03 10:50:00,58.6,34.3,30.23,SE,138,1.0,1.0,40,0.00,,,0.00,325,Wunderground v.1.15,2013-03-03 16:50:00,
2013-03-03 10:55:00,59.0,34.1,30.23,SSW,195,1.0,4.0,39,0.00,,,0.00,200,Wunderground v.1.15,2013-03-03 16:55:00,
2013-03-03 11:00:00,59.3,33.7,30.23,ESE,112,0.0,4.0,38,0.00,,,0.00,132,Wunderground v.1.15,2013-03-03 17:00:00,
2013-03-03 11:05:00,59.7,34.0,30.23,South,179,0.0,4.0,38,0.00,,,0.00,135,Wunderground v.1.15,2013-03-03 17:05:00,
2013-03-03 11:10:00,60.2,35.1,30.22,SE,126,0.0,4.0,39,0.00,,,0.00,390,Wunderground v.1.15,2013-03-03 17:10:00,
2013-03-03 11:15:00,60.7,33.6,30.22,SSE,165,0.0,4.0,36,0.00,,,0.00,462,Wunderground v.1.15,2013-03-03 17:15:00,
2013-03-03 11:20:00,61.0,33.8,30.22,SE,144,0.0,4.0,36,0.00,,,0.00,223,Wunderground v.1.15,2013-03-03 17:20:00,
2013-03-03 11:30:00,61.4,33.5,30.22,ENE,78,1.0,1.0,35,0.00,,,0.00,114,Wunderground v.1.15,2013-03-03 17:30:00,
2013-03-03 11:35:00,61.9,34.6,30.21,SE,142,1.0,4.0,36,0.00,,,0.00,320,Wunderground v.1.15,2013-03-03 17:35:00,
2013-03-03 11:40:00,62.6,35.3,30.21,SSE,153,1.0,4.0,36,0.00,,,0.00,366,Wunderground v.1.15,2013-03-03 17:40:00,
2013-03-03 11:45:00,63.1,35.0,30.21,SSE,151,1.0,4.0,35,0.00,,,0.00,439,Wunderground v.1.15,2013-03-03 17:45:00,
2013-03-03 11:55:00,64.0,36.5,30.20,WSW,238,1.0,4.0,36,0.00,,,0.00,793,Wunderground v.1.15,2013-03-03 17:55:00,
2013-03-03 12:00:00,64.5,36.2,30.20,SE,134,1.0,4.0,35,0.00,,,0.00,846,Wunderground v.1.15,2013-03-03 18:00:00,
2013-03-03 12:05:00,64.9,35.8,30.20,SW,232,1.0,4.0,34,0.00,,,0.00,853,Wunderground v.1.15,2013-03-03 18:05:00,
2013-03-03 12:10:00,64.8,35.8,30.19,South,186,1.0,1.0,34,0.00,,,0.00,856,Wunderground v.1.15,2013-03-03 18:10:00,
2013-03-03 12:15:00,65.1,36.8,30.19,SSE,161,1.0,4.0,35,0.00,,,0.00,861,Wunderground v.1.15,2013-03-03 18:15:00,
2013-03-03 12:25:00,65.8,37.4,30.17,West,268,1.0,4.0,35,0.00,,,0.00,863,Wunderground v.1.15,2013-03-03 18:25:00,
2013-03-03 12:30:00,66.0,37.5,30.17,SW,219,2.0,4.0,35,0.00,,,0.00,868,Wunderground v.1.15,2013-03-03 18:30:00,
2013-03-03 12:40:00,66.6,37.3,30.17,SSW,207,2.0,2.0,34,0.00,,,0.00,721,Wunderground v.1.15,2013-03-03 18:40:00,
2013-03-03 12:45:00,66.5,39.4,30.16,SE,132,1.0,4.0,37,0.00,,,0.00,712,Wunderground v.1.15,2013-03-03 18:45:00,
2013-03-03 12:50:00,67.0,39.1,30.16,SSW,196,1.0,1.0,36,0.00,,,0.00,853,Wunderground v.1.15,2013-03-03 18:50:00,
2013-03-03 13:00:00,67.6,38.2,30.15,WSW,248,1.0,4.0,34,0.00,,,0.00,494,Wunderground v.1.15,2013-03-03 19:00:00,
2013-03-03 13:05:00,67.7,38.3,30.15,SW,217,1.0,4.0,34,0.00,,,0.00,555,Wunderground v.1.15,2013-03-03 19:05:00,
2013-03-03 13:10:00,67.5,38.9,30.14,SE,137,1.0,1.0,35,0.00,,,0.00,529,Wunderground v.1.15,2013-03-03 19:10:00,
2013-03-03 13:15:00,67.6,39.0,30.14,South,179,1.0,4.0,35,0.00,,,0.00,715,Wunderground v.1.15,2013-03-03 19:15:00,
2013-03-03 13:20:00,67.7,39.0,30.14,West,265,1.0,4.0,35,0.00,,,0.00,633,Wunderground v.1.15,2013-03-03 19:20:00,
2013-03-03 13:25:00,68.1,39.4,30.13,SSE,153,1.0,4.0,35,0.00,,,0.00,257,Wunderground v.1.15,2013-03-03 19:25:00,
2013-03-03 13:35:00,68.2,38.7,30.12,South,173,1.0,4.0,34,0.00,,,0.00,482,Wunderground v.1.15,2013-03-03 19:35:00,
2013-03-03 13:40:00,68.3,38.1,30.12,SW,234,1.0,4.0,33,0.00,,,0.00,200,Wunderground v.1.15,2013-03-03 19:40:00,
2013-03-03 13:45:00,68.3,38.8,30.11,SW,220,1.0,4.0,34,0.00,,,0.00,54,Wunderground v.1.15,2013-03-03 19:45:00,
2013-03-03 13:50:00,68.4,39.7,30.10,WSW,257,1.0,4.0,35,0.00,,,0.00,192,Wunderground v.1.15,2013-03-03 19:50:00,
2013-03-03 14:00:00,69.0,40.9,30.10,SSW,204,1.0,1.0,36,0.00,,,0.00,415,Wunderground v.1.15,2013-03-03 20:00:00,
2013-03-03 14:05:00,69.5,40.6,30.09,SE,142,1.0,4.0,35,0.00,,,0.00,476,Wunderground v.1.15,2013-03-03 20:05:00,
2013-03-03 14:15:00,69.8,40.9,30.09,SE,146,2.0,4.0,35,0.00,,,0.00,469,Wunderground v.1.15,2013-03-03 20:15:00,
2013-03-03 14:20:00,69.5,40.6,30.08,SSE,163,2.0,2.0,35,0.00,,,0.00,295,Wunderground v.1.15,2013-03-03 20:20:00,
2013-03-03 14:25:00,69.6,41.5,30.08,SE,134,1.0,4.0,36,0.00,,,0.00,411,Wunderground v.1.15,2013-03-03 20:25:00,
2013-03-03 14:30:00,69.8,41.6,30.08,SE,142,2.0,2.0,36,0.00,,,0.00,496,Wunderground v.1.15,2013-03-03 20:30:00,
2013-03-03 14:40:00,70.1,41.9,30.08,ENE,75,2.0,2.0,36,0.00,,,0.00,436,Wunderground v.1.15,2013-03-03 20:40:00,
2013-03-03 14:45:00,70.3,42.8,30.08,SSE,148,1.0,4.0,37,0.00,,,0.00,381,Wunderground v.1.15,2013-03-03 20:45:00,
2013-03-03 14:50:00,70.7,42.4,30.08,SSW,198,1.0,4.0,36,0.00,,,0.00,341,Wunderground v.1.15,2013-03-03 20:50:00,
2013-03-03 14:55:00,70.7,43.8,30.08,SE,138,2.0,4.0,38,0.00,,,0.00,403,Wunderground v.1.15,2013-03-03 20:55:00,
2013-03-03 15:00:00,70.8,42.5,30.07,SE,136,2.0,2.0,36,0.00,,,0.00,566,Wunderground v.1.15,2013-03-03 21:00:00,
2013-03-03 15:05:00,70.5,42.2,30.07,South,183,2.0,4.0,36,0.00,,,0.00,487,Wunderground v.1.15,2013-03-03 21:05:00,
2013-03-03 15:15:00,70.2,42.0,30.07,SE,135,1.0,4.0,36,0.00,,,0.00,265,Wunderground v.1.15,2013-03-03 21:15:00,
2013-03-03 15:20:00,70.0,41.8,30.08,SSW,210,1.0,4.0,36,0.00,,,0.00,406,Wunderground v.1.15,2013-03-03 21:20:00,
2013-03-03 15:30:00,70.3,42.8,30.08,SE,141,1.0,1.0,37,0.00,,,0.00,582,Wunderground v.1.15,2013-03-03 21:30:00,
2013-03-03 15:35:00,70.2,42.0,30.07,SSW,212,1.0,4.0,36,0.00,,,0.00,557,Wunderground v.1.15,2013-03-03 21:35:00,
2013-03-03 15:40:00,70.1,42.6,30.07,SSW,211,1.0,4.0,37,0.00,,,0.00,149,Wunderground v.1.15,2013-03-03 21:40:00,
2013-03-03 15:50:00,69.4,42.7,30.07,SE,125,2.0,4.0,38,0.00,,,0.00,100,Wunderground v.1.15,2013-03-03 21:50:00,
2013-03-03 15:55:00,69.2,43.2,30.07,South,185,2.0,4.0,39,0.00,,,0.00,134,Wunderground v.1.15,2013-03-03 21:55:00,
2013-03-03 16:00:00,69.3,43.3,30.07,SE,130,1.0,4.0,39,0.00,,,0.00,220,Wunderground v.1.15,2013-03-03 22:00:00,
2013-03-03 16:05:00,69.2,43.2,30.07,ENE,57,1.0,4.0,39,0.00,,,0.00,137,Wunderground v.1.15,2013-03-03 22:05:00,
2013-03-03 16:10:00,69.2,43.8,30.07,SSE,164,1.0,4.0,40,0.00,,,0.00,127,Wunderground v.1.15,2013-03-03 22:10:00,
2013-03-03 16:20:00,68.5,43.9,30.06,SW,223,2.0,2.0,41,0.00,,,0.00,39,Wunderground v.1.15,2013-03-03 22:20:00,
2013-03-03 16:25:00,68.4,44.4,30.06,South,190,1.0,4.0,42,0.00,,,0.00,37,Wunderground v.1.15,2013-03-03 22:25:00,
2013-03-03 16:35:00,68.2,44.2,30.06,SE,137,1.0,3.0,42,0.00,,,0.00,141,Wunderground v.1.15,2013-03-03 22:35:00,
2013-03-03 16:40:00,68.1,44.1,30.06,SE,128,1.0,1.0,42,0.00,,,0.00,102,Wunderground v.1.15,2013-03-03 22:40:00,
2013-03-03 16:45:00,68.0,44.0,30.06,SW,219,2.0,2.0,42,0.00,,,0.00,241,Wunderground v.1.15,2013-03-03 22:45:00,
2013-03-03 16:55:00,68.1,44.7,30.06,SW,215,1.0,4.0,43,0.00,,,0.00,69,Wunderground v.1.15,2013-03-03 22:55:00,
2013-03-03 17:00:00,68.0,44.7,30.06,SSE,154,1.0,1.0,43,0.00,,,0.00,155,Wunderground v.1.15,2013-03-03 23:00:00,
2013-03-03 17:05:00,67.7,44.4,30.06,WSW,245,1.0,4.0,43,0.00,,,0.00,179,Wunderground v.1.15,2013-03-03 23:05:00,
2013-03-03 17:10:00,67.5,44.8,30.06,SSW,212,2.0,6.0,44,0.00,,,0.00,176,Wunderground v.1.15,2013-03-03 23:10:00,
2013-03-03 17:15:00,67.2,44.5,30.06,SE,132,2.0,6.0,44,0.00,,,0.00,206,Wunderground v.1.15,2013-03-03 23:15:00,
2013-03-03 17:20:00,67.0,44.9,30.05,SE,141,2.0,4.0,45,0.00,,,0.00,151,Wunderground v.1.15,2013-03-03 23:20:00,
2013-03-03 17:25:00,66.8,44.8,30.05,SW,218,1.0,4.0,45,0.00,,,0.00,72,Wunderground v.1.15,2013-03-03 23:25:00,
2013-03-03 17:30:00,66.3,44.9,30.05,SE,140,1.0,4.0,46,0.00,,,0.00,28,Wunderground v.1.15,2013-03-03 23:30:00,
2013-03-03 17:35:00,65.9,45.1,30.05,SSE,147,1.0,4.0,47,0.00,,,0.00,25,Wunderground v.1.15,2013-03-03 23:35:00,
2013-03-03 17:45:00,65.0,44.8,30.05,ESE,118,1.0,4.0,48,0.00,,,0.00,21,Wunderground v.1.15,2013-03-03 23:45:00,
2013-03-03 17:50:00,64.5,44.9,30.05,SE,145,1.0,4.0,49,0.00,,,0.00,18,Wunderground v.1.15,2013-03-03 23:50:00,
2013-03-03 17:55:00,64.1,45.1,30.05,South,172,1.0,4.0,50,0.00,,,0.00,16,Wunderground v.1.15,2013-03-03 23:55:00,
2013-03-03 18:05:00,63.4,44.9,30.05,SSE,157,2.0,4.0,51,0.00,,,0.00,11,Wunderground v.1.15,2013-03-04 00:05:00,
2013-03-03 18:10:00,63.0,45.1,30.05,SE,135,1.0,4.0,52,0.00,,,0.00,9,Wunderground v.1.15,2013-03-04 00:10:00,
2013-03-03 18:15:00,62.5,45.6,30.05,SSW,200,1.0,4.0,54,0.00,,,0.00,7,Wunderground v.1.15,2013-03-04 00:15:00,
2013-03-03 18:20:00,62.1,44.8,30.05,SSE,150,1.0,1.0,53,0.00,,,0.00,5,Wunderground v.1.15,2013-03-04 00:20:00,
2013-03-03 18:25:00,61.7,44.9,30.04,SSE,167,1.0,4.0,54,0.00,,,0.00,0,Wunderground v.1.15,2013-03-04 00:25:00,
2013-03-03 18:35:00,61.0,45.2,30.04,SSE,165,1.0,2.0,56,0.00,,,0.00,0,Wunderground v.1.15,2013-03-04 00:35:00,
2013-03-03 18:40:00,60.7,45.4,30.04,SE,129,1.0,5.0,57,0.00,,,0.00,0,Wunderground v.1.15,2013-03-04 00:40:00,
2013-03-03 18:45:00,60.4,45.5,30.04,South,173,1.0,5.0,58,0.00,,,0.00,0,Wunderground v.1.15,2013-03-04 00:45:00,
2013-03-03 18:50:00,60.2,45.4,30.03,SE,129,1.0,4.0,58,0.00,,,0.00,0,Wunderground v.1.15,2013-03-04 00:50:00,
2013-03-03 18:55:00,59.9,45.5,30.03,South,173,1.0,4.0,59,0.00,,,0.00,0,Wunderground v.1.15,2013-03-04 00:55:00,
2013-03-03 19:00:00,59.7,45.3,30.03,SE,144,1.0,1.0,59,0.00,,,0.00,0,Wunderground v.1.15,2013-03-04 01:00:00,
2013-03-03 19:10:00,59.2,45.8,30.03,South,190,1.0,4.0,61,0.00,,,0.00,0,Wunderground v.1.15,2013-03-04 01:10:00,
2013-03-03 19:15:00,59.0,45.6,30.03,SSE,165,1.0,4.0,61,0.00,,,0.00,0,Wunderground v.1.15,2013-03-04 01:15:00,
2013-03-03 19:20:00,59.0,46.0,30.04,SE,126,0.0,4.0,62,0.00,,,0.00,0,Wunderground v.1.15,2013-03-04 01:20:00,
2013-03-03 19:25:00,58.7,46.1,30.04,SSE,148,0.0,4.0,63,0.00,,,0.00,0,Wunderground v.1.15,2013-03-04 01:25:00,
2013-03-03 19:35:00,58.1,46.0,30.04,SSE,152,0.0,4.0,64,0.00,,,0.00,0,Wunderground v.1.15,2013-03-04 01:35:00,
2013-03-03 19:45:00,57.5,45.8,30.03,SSE,162,0.0,4.0,65,0.00,,,0.00,0,Wunderground v.1.15,2013-03-04 01:45:00,
2013-03-03 19:50:00,57.2,45.5,30.03,South,169,0.0,4.0,65,0.00,,,0.00,0,Wunderground v.1.15,2013-03-04 01:50:00,
2013-03-03 19:55:00,56.9,45.7,30.03,SE,126,0.0,4.0,66,0.00,,,0.00,0,Wunderground v.1.15,2013-03-04 01:55:00,
2013-03-03 20:00:00,56.7,45.5,30.03,SE,128,0.0,4.0,66,0.00,,,0.00,0,Wunderground v.1.15,2013-03-04 02:00:00,
2013-03-03 20:05:00,56.5,45.7,30.03,SE,128,0.0,4.0,67,0.00,,,0.00,0,Wunderground v.1.15,2013-03-04 02:05:00,
2013-03-03 20:10:00,56.3,45.9,30.03,SE,128,0.0,4.0,68,0.00,,,0.00,0,Wunderground v.1.15,2013-03-04 02:10:00,
2013-03-03 20:15:00,56.1,45.7,30.03,SE,126,0.0,4.0,68,0.00,,,0.00,0,Wunderground v.1.15,2013-03-04 02:15:00,
2013-03-03 20:20:00,55.9,45.9,30.02,SE,126,0.0,4.0,69,0.00,,,0.00,0,Wunderground v.1.15,2013-03-04 02:20:00,
2013-03-03 20:30:00,55.7,46.1,30.02,SSE,165,0.0,4.0,70,0.00,,,0.00,0,Wunderground v.1.15,2013-03-04 02:30:00,
2013-03-03 20:35:00,55.5,46.2,30.02,SSE,161,0.0,4.0,71,0.00,,,0.00,0,Wunderground v.1.15,2013-03-04 02:35:00,
2013-03-03 20:40:00,55.5,46.2,30.02,South,187,0.0,4.0,71,0.00,,,0.00,0,Wunderground v.1.15,2013-03-04 02:40:00,
2013-03-03 20:45:00,55.4,46.2,30.02,South,176,0.0,4.0,71,0.00,,,0.00,0,Wunderground v.1.15,2013-03-04 02:45:00,
2013-03-03 20:55:00,55.3,46.4,30.02,SE,138,0.0,4.0,72,0.00,,,0.00,0,Wunderground v.1.15,2013-03-04 02:55:00,
2013-03-03 21:00:00,55.3,46.8,30.02,ESE,115,0.0,4.0,73,0.00,,,0.00,0,Wunderground v.1.15,2013-03-04 03:00:00,
2013-03-03 21:05:00,55.3,47.2,30.02,SSE,156,0.0,4.0,74,0.00,,,0.00,0,Wunderground v.1.15,2013-03-04 03:05:00,
2013-03-03 21:10:00,55.3,47.2,30.02,SSE,156,0.0,4.0,74,0.00,,,0.00,0,Wunderground v.1.15,2013-03-04 03:10:00,
2013-03-03 21:20:00,55.2,47.4,30.02,NE,40,0.0,4.0,75,0.00,,,0.00,0,Wunderground v.1.15,2013-03-04 03:20:00,
2013-03-03 21:30:00,55.2,47.4,30.02,SSW,202,0.0,4.0,75,0.00,,,0.00,0,Wunderground v.1.15,2013-03-04 03:30:00,
2013-03-03 21:35:00,55.1,47.7,30.02,SSE,151,1.0,4.0,76,0.00,,,0.00,0,Wunderground v.1.15,2013-03-04 03:35:00,
2013-03-03 21:40:00,55.1,47.7,30.02,SE,136,1.0,1.0,76,0.00,,,0.00,0,Wunderground v.1.15,2013-03-04 03:40:00,
2013-03-03 21:45:00,55.1,47.7,30.01,SE,140,0.0,4.0,76,0.00,,,0.00,0,Wunderground v.1.15,2013-03-04 03:45:00,
2013-03-03 21:50:00,55.0,47.6,30.01,ESE,123,0.0,4.0,76,0.00,,,0.00,0,Wunderground v.1.15,2013-03-04 03:50:00,
2013-03-03 22:00:00,55.0,47.9,30.01,SE,132,0.0,4.0,77,0.00,,,0.00,0,Wunderground v.1.15,2013-03-04 04:00:00,
2013-03-03 22:05:00,54.9,48.2,30.01,SSE,168,0.0,4.0,78,0.00,,,0.00,0,Wunderground v.1.15,2013-03-04 04:05:00,
2013-03-03 22:10:00,54.9,48.2,30.00,SSE,168,0.0,4.0,78,0.00,,,0.00,0,Wunderground v.1.15,2013-03-04 04:10:00,
2013-03-03 22:15:00,55.0,48.3,30.00,SSE,162,1.0,4.0,78,0.00,,,0.00,0,Wunderground v.1.15,2013-03-04 04:15:00,
2013-03-03 22:20:00,55.0,48.3,30.00,SE,136,1.0,4.0,78,0.00,,,0.00,0,Wunderground v.1.15,2013-03-04 04:20:00,
2013-03-03 22:30:00,55.0,48.6,30.00,SE,130,1.0,1.0,79,0.00,,,0.00,0,Wunderground v.1.15,2013-03-04 04:30:00,
2013-03-03 22:35:00,55.0,48.6,29.99,SE,139,1.0,4.0,79,0.00,,,0.00,0,Wunderground v.1.15,2013-03-04 04:35:00,
2013-03-03 22:40:00,54.9,48.5,29.99,SE,130,0.0,4.0,79,0.00,,,0.00,0,Wunderground v.1.15,2013-03-04 04:40:00,
2013-03-03 22:45:00,54.9,48.5,29.99,South,170,1.0,4.0,79,0.00,,,0.00,0,Wunderground v.1.15,2013-03-04 04:45:00,
2013-03-03 22:50:00,54.8,48.7,29.99,SSW,200,1.0,1.0,80,0.00,,,0.00,0,Wunderground v.1.15,2013-03-04 04:50:00,
2013-03-03 22:55:00,54.7,48.6,29.99,SE,146,1.0,4.0,80,0.00,,,0.00,0,Wunderground v.1.15,2013-03-04 04:55:00,
2013-03-03 23:00:00,54.7,48.6,29.99,SE,135,0.0,4.0,80,0.00,,,0.00,0,Wunderground v.1.15,2013-03-04 05:00:00,
2013-03-03 23:05:00,54.6,48.6,29.99,SSE,163,1.0,4.0,80,0.00,,,0.00,0,Wunderground v.1.15,2013-03-04 05:05:00,
2013-03-03 23:10:00,54.6,48.6,29.99,SE,140,1.0,1.0,80,0.00,,,0.00,0,Wunderground v.1.15,2013-03-04 05:10:00,
2013-03-03 23:15:00,54.5,48.8,29.99,SE,140,0.0,4.0,81,0.00,,,0.00,0,Wunderground v.1.15,2013-03-04 05:15:00,
2013-03-03 23:20:00,54.4,48.7,29.98,WSW,255,0.0,4.0,81,0.00,,,0.00,0,Wunderground v.1.15,2013-03-04 05:20:00,
2013-03-03 23:30:00,54.3,48.6,29.98,SSE,155,0.0,4.0,81,0.00,,,0.00,0,Wunderground v.1.15,2013-03-04 05:30:00,
2013-03-03 23:35:00,54.3,48.9,29.98,South,171,0.0,4.0,82,0.00,,,0.00,0,Wunderground v.1.15,2013-03-04 05:35:00,
2013-03-03 23:45:00,54.3,48.9,29.98,SE,134,0.0,4.0,82,0.00,,,0.00,0,Wunderground v.1.15,2013-03-04 05:45:00,
2013-03-03 23:50:00,54.2,48.8,29.98,SE,133,0.0,4.0,82,0.00,,,0.00,0,Wunderground v.1.15,2013-03-04 05:50:00,
2013-03-03 23:55:00,54.2,49.1,29.98,SE,134,0.0,4.0,83,0.00,,,0.00,0,Wunderground v.1.15,2013-03-04 05:55:00,